Weather History for Arad, Romania

Change the Weather History Date:

Tuesday, September 10, 2013

  Actual Average Record
Temperature  
Mean Temperature 63 °F -  
Max Temperature 71 °F 68 °F 88 °F (2012)
Min Temperature 55 °F 47 °F 37 °F (2004)
Degree Days  
Heating Degree Days 2    
Growing Degree Days 13 (Base 50)    
Moisture  
Dew Point 59 °F    
Average Humidity 92    
Maximum Humidity 100    
Minimum Humidity 55    
Precipitation  
Precipitation 0.00 in - - ()
Sea Level Pressure  
Sea Level Pressure 30.07 in    
Wind  
Wind Speed 3 mph ()    
Max Wind Speed 9 mph    
Max Gust Speed -    
Visibility 2.8 miles    
Events Fog    
Averages and records for this station are not official NWS values.
T = Trace of Precipitation, MM = Missing Value Source: Averaged Metar Reports

Daily Weather History Graph

Daily Weather History Graph

Search for Another Location

Airport:

Trip Planner

Search our weather history database for the weather conditions in past years. The results will help you decide how hot, cold, wet, or windy it might be!

Date:

Astronomy

Sep. 10, 2013 Rise Set
Actual Time 7:06 AM EEST 7:56 PM EEST
Civil Twilight 6:36 AM EEST 8:26 PM EEST
Nautical Twilight 5:59 AM EEST 9:02 PM EEST
Astronomical Twilight 5:21 AM EEST 9:40 PM EEST
Moon 12:31 PM EEST (9/10) 10:24 PM EEST (9/10)
Length of Visible Light 13h 50m
Length of Day
12h 49m
Waxing Crescent, 25% of the Moon is Illuminated
Sep 10
Waxing Crescent
Sep 12
First Quarter
Sep 19
Full
Sep 27
Last Quarter
Oct 5
New

Hourly Weather History & Observations

Time (EEST) Temp. Dew Point Humidity Pressure Visibility Wind Dir Wind Speed Gust Speed Precip Events Conditions
12:00 AM 60 °F 60 °F 99% 30.09 in 6 mi North 2.2 mph - -   Partly Cloudy
12:00 AM - - N/A% 30.06 in 3.7 mi North 2.3 mph - N/A   Mostly Cloudy
1:00 AM - - N/A% 30.06 in - NW 4.6 mph - N/A   Partly Cloudy
2:00 AM 60 °F 59 °F 95% 30.09 in 6 mi NW 2.2 mph - -   Mostly Cloudy
2:00 AM - - N/A% 30.06 in 1.3 mi Calm Calm - N/A   Partly Cloudy
3:00 AM 57 °F 57 °F 100% 30.08 in 6 mi North 2.2 mph - -   Partly Cloudy
3:00 AM - - N/A% 30.09 in 0.2 mi NNW 9.2 mph - N/A Fog Fog
4:00 AM 58 °F 58 °F 98% 30.10 in 2 mi NNW 2.2 mph - -   Mist
4:00 AM - - N/A% 30.09 in 0.1 mi Calm Calm - N/A Fog Patches of Fog
5:00 AM - - N/A% 30.09 in 0.1 mi NW 4.6 mph - N/A Fog Fog
5:30 AM - - N/A% 30.09 in 0.1 mi NNW 4.6 mph - N/A Fog Fog
6:00 AM 55.4 °F 55.4 °F 100% 30.09 in 0.1 mi NNW 4.6 mph - N/A Fog Fog
6:30 AM 55.4 °F 55.4 °F 100% 30.09 in 0.1 mi NNW 4.6 mph - N/A Fog Fog
7:00 AM 55.4 °F 55.4 °F 100% 30.09 in 0.2 mi North 3.5 mph - N/A Fog Fog
7:30 AM 55.4 °F 55.4 °F 100% 30.09 in 0.2 mi North 3.5 mph - N/A Fog Fog
8:00 AM 55 °F 55 °F 100% 30.11 in 0 mi NNW 2.2 mph - - Fog Heavy Fog
8:00 AM 55.4 °F 55.4 °F 100% 30.09 in 0.2 mi Variable 2.3 mph - N/A Fog Fog
8:30 AM 57.2 °F 57.2 °F 100% 30.09 in 0.3 mi Variable 2.3 mph - N/A Fog Fog
9:00 AM 56 °F 56 °F 99% 30.12 in 0 mi NW 2.2 mph - - Fog Heavy Fog
9:00 AM 57.2 °F 57.2 °F 100% 30.09 in 1.2 mi North 4.6 mph - N/A   Mostly Cloudy
9:30 AM 57.2 °F 57.2 °F 100% 30.09 in 0.9 mi NNE 4.6 mph - N/A   Overcast
10:00 AM 57 °F 57 °F 98% 30.12 in 0 mi North 2.2 mph - - Fog Heavy Fog
10:00 AM 57.2 °F 57.2 °F 100% 30.09 in 1.1 mi Variable 2.3 mph - N/A   Overcast
10:30 AM 57.2 °F 57.2 °F 100% 30.12 in 1.1 mi Variable 2.3 mph - N/A   Overcast
11:00 AM 57 °F 57 °F 100% 30.13 in 1 mi NNE 2.2 mph - - Fog Light Fog
11:00 AM 57.2 °F 57.2 °F 100% 30.12 in 1.4 mi Variable 2.3 mph - N/A   Overcast
11:30 AM 59.0 °F 59.0 °F 100% 30.12 in 2.5 mi Variable 2.3 mph - N/A   Overcast
12:00 PM 58 °F 58 °F 100% 30.12 in 1 mi ENE 2.2 mph - -   Mist
12:00 PM 59.0 °F 59.0 °F 100% 30.09 in 3.7 mi Variable 2.3 mph - N/A   Overcast
12:30 PM 59.0 °F 59.0 °F 100% 30.09 in 4.3 mi SSE 4.6 mph - N/A   Overcast
1:00 PM 60 °F 58 °F 90% 30.11 in 1 mi ENE 2.2 mph - -   Mist
1:00 PM 60.8 °F 59.0 °F 94% 30.09 in 5.0 mi Variable 2.3 mph - N/A   Mostly Cloudy
1:30 PM 60.8 °F 59.0 °F 94% 30.12 in 5.0 mi Variable 2.3 mph - N/A   Overcast
2:00 PM 61 °F 57 °F 83% 30.12 in 2 mi Calm Calm - -   Mist
2:00 PM 62.6 °F 60.8 °F 94% 30.09 in 5.0 mi South 4.6 mph - N/A   Overcast
2:30 PM 62.6 °F 62.6 °F 100% 30.09 in 5.6 mi SW 4.6 mph - N/A   Overcast
3:00 PM 64 °F 58 °F 73% 30.11 in 2 mi South 2.2 mph - -   Mist
3:00 PM 62.6 °F 62.6 °F 100% 30.09 in 5.6 mi Variable 2.3 mph - N/A   Mostly Cloudy
3:30 PM 62.6 °F 62.6 °F 100% 30.09 in 6.2 mi Variable 2.3 mph - N/A   Mostly Cloudy
4:00 PM 66 °F 58 °F 69% 30.09 in 2 mi West 2.2 mph - -   Mist
4:00 PM 64.4 °F 62.6 °F 94% 30.06 in 6.2 mi Variable 4.6 mph - N/A   Scattered Clouds
4:30 PM 66.2 °F 64.4 °F 94% 30.06 in 6.2 mi Variable 2.3 mph - N/A   Partly Cloudy
5:00 PM 69 °F 60 °F 64% 30.06 in 2 mi Calm Calm - -   Mist
5:00 PM 68.0 °F 64.4 °F 88% 30.04 in - Variable 2.3 mph - N/A   Clear
5:30 PM 68.0 °F 64.4 °F 88% 30.04 in - Variable 2.3 mph - N/A   Clear
6:00 PM 70 °F 59 °F 59% 30.03 in 6 mi Calm Calm - -   Clear
6:00 PM 69.8 °F 62.6 °F 78% 30.04 in - Variable 2.3 mph - N/A   Clear
6:30 PM 69.8 °F 62.6 °F 78% 30.04 in - Variable 2.3 mph - N/A   Clear
7:00 PM 72 °F 59 °F 55% 30.02 in 6 mi North 2.2 mph - -   Clear
7:00 PM 68.0 °F 62.6 °F 83% 30.01 in - North 4.6 mph - N/A   Clear
7:30 PM 66.2 °F 64.4 °F 94% 30.01 in - NNE 4.6 mph - N/A   Clear
8:00 PM 66 °F 59 °F 73% 30.01 in 6 mi North 2.2 mph - -   Partly Cloudy
8:00 PM 64.4 °F 62.6 °F 94% 30.01 in - NE 3.5 mph - N/A   Clear
8:30 PM 64.4 °F 62.6 °F 94% 29.98 in - NNE 3.5 mph - N/A   Clear
9:00 PM 61 °F 58 °F 85% 29.99 in 6 mi NNE 2.2 mph - -   Scattered Clouds
9:00 PM 62.6 °F 62.6 °F 100% 29.98 in - NE 1.2 mph - N/A   Clear
9:30 PM 60.8 °F 60.8 °F 100% 29.98 in 4.3 mi East 1.2 mph - N/A   Unknown
10:00 PM 59 °F 57 °F 92% 30.00 in 6 mi Calm Calm - -  
10:00 PM 60.8 °F 60.8 °F 100% 29.98 in 4.3 mi East 1.2 mph - N/A   Unknown
11:00 PM 58 °F 57 °F 97% 29.99 in 6 mi Calm Calm - -  
11:00 PM - - N/A% 29.98 in 1.9 mi WNW 2.3 mph - N/A   Mist